TimeMDT,TemperatureF,Dew PointF,Humidity,Sea Level PressureIn,VisibilityMPH,Wind Direction,Wind SpeedMPH,Gust SpeedMPH,PrecipitationIn,Events,Conditions,WindDirDegrees,DateUTC
12:53 AM,35.1,25.0,67,30.17,10.0,NE,15.0,-,N/A,,Clear,40,2013-04-01 06:53:00
1:53 AM,33.1,26.1,75,30.19,10.0,NE,9.2,-,N/A,,Clear,50,2013-04-01 07:53:00
2:53 AM,30.9,25.0,79,30.21,10.0,NNE,5.8,-,N/A,,Partly Cloudy,30,2013-04-01 08:53:00
3:30 AM,30.2,24.8,80,30.20,10.0,NNE,12.7,-,N/A,,Mostly Cloudy,20,2013-04-01 09:30:00
3:53 AM,30.0,26.1,85,30.21,10.0,NNE,16.1,-,N/A,,Overcast,20,2013-04-01 09:53:00
4:12 AM,30.2,26.6,86,30.20,10.0,NNE,13.8,-,N/A,,Overcast,20,2013-04-01 10:12:00
4:49 AM,30.2,24.8,80,30.21,10.0,NE,9.2,19.6,N/A,,Overcast,40,2013-04-01 10:49:00
4:53 AM,30.0,26.1,85,30.21,10.0,NE,11.5,-,N/A,,Overcast,40,2013-04-01 10:53:00
5:53 AM,30.0,24.1,79,30.23,10.0,NE,8.1,-,N/A,,Overcast,50,2013-04-01 11:53:00
6:53 AM,30.0,24.1,79,30.26,10.0,NE,8.1,-,N/A,,Overcast,50,2013-04-01 12:53:00
7:53 AM,33.1,25.0,72,30.28,10.0,ENE,6.9,-,N/A,,Mostly Cloudy,60,2013-04-01 13:53:00
8:03 AM,33.8,24.8,70,30.24,10.0,NE,8.1,-,N/A,,Scattered Clouds,50,2013-04-01 14:03:00
8:53 AM,36.0,25.0,64,30.29,10.0,East,6.9,-,N/A,,Partly Cloudy,80,2013-04-01 14:53:00
9:53 AM,37.9,25.0,60,30.29,10.0,NE,8.1,-,N/A,,Clear,50,2013-04-01 15:53:00
10:53 AM,41.0,24.1,51,30.29,10.0,Calm,Calm,-,N/A,,Clear,0,2013-04-01 16:53:00
11:53 AM,43.0,25.0,49,30.28,10.0,Variable,4.6,-,N/A,,Clear,0,2013-04-01 17:53:00
12:53 PM,48.0,25.0,41,30.24,10.0,North,4.6,-,N/A,,Clear,10,2013-04-01 18:53:00
1:53 PM,50.0,24.1,36,30.21,10.0,ENE,10.4,-,N/A,,Clear,60,2013-04-01 19:53:00
2:53 PM,50.0,24.1,36,30.19,10.0,SE,10.4,-,N/A,,Clear,140,2013-04-01 20:53:00
3:53 PM,51.1,23.0,33,30.17,10.0,SE,6.9,-,N/A,,Clear,130,2013-04-01 21:53:00
4:53 PM,51.1,21.9,32,30.15,10.0,ESE,8.1,-,N/A,,Clear,110,2013-04-01 22:53:00
5:53 PM,48.9,24.1,38,30.16,10.0,SSE,10.4,-,N/A,,Clear,150,2013-04-01 23:53:00
6:53 PM,46.9,26.1,44,30.18,10.0,SSE,11.5,-,N/A,,Clear,160,2013-04-02 00:53:00
7:53 PM,41.0,26.1,55,30.20,10.0,SSE,6.9,-,N/A,,Clear,160,2013-04-02 01:53:00
8:53 PM,36.0,25.0,64,30.22,10.0,SE,5.8,-,N/A,,Clear,140,2013-04-02 02:53:00
9:53 PM,35.1,26.1,70,30.24,10.0,SE,9.2,-,N/A,,Clear,140,2013-04-02 03:53:00
10:53 PM,35.1,26.1,70,30.23,10.0,SSE,9.2,-,N/A,,Clear,160,2013-04-02 04:53:00
11:53 PM,34.0,25.0,70,30.22,10.0,South,8.1,-,N/A,,Clear,170,2013-04-02 05:53:00